This is the latest recevied weather packets stored in our database for station/object K4CRS-13. If no packets are shown the sender has not sent any weather packets the latest 10 day(s).
| Time | Temp. | Humidity | Pressure | Rain* | Wind** | Luminosity | Snow |
|---|---|---|---|---|---|---|---|
| 1777455824 | 17.22° C | 99% | 1048.6 hPa | 0 mm | - | 0 W/m² | - |
| 1777455521 | 17.22° C | 99% | 1048.4 hPa | 0 mm | - | 0 W/m² | - |
| 1777455218 | 17.22° C | 99% | 1048.3 hPa | 1.78 mm | - | 0 W/m² | - |
| 1777454915 | 17.22° C | 99% | 1048.2 hPa | 7.87 mm | - | 0 W/m² | - |
| 1777454612 | 17.22° C | 99% | 1048 hPa | 7.11 mm | - | 0 W/m² | - |
| 1777454307 | 16.67° C | 99% | 1048.4 hPa | 0 mm | - | 0 W/m² | - |
| 1777454005 | 16.67° C | 99% | 1048.4 hPa | 0 mm | - | 0 W/m² | - |
| 1777453702 | 16.67° C | 99% | 1048.1 hPa | 0 mm | - | 0 W/m² | - |
| 1777453399 | 16.67° C | 99% | 1048 hPa | 0 mm | - | 0 W/m² | - |
| 1777453095 | 16.67° C | 99% | 1047.9 hPa | 10.67 mm | - | 0 W/m² | - |
| 1777452793 | 16.67° C | 99% | 1047.7 hPa | 21.59 mm | - | 0 W/m² | - |
| 1777452489 | 16.67° C | 99% | 1047.9 hPa | 7.87 mm | - | 0 W/m² | - |
| 1777452185 | 16.67° C | 99% | 1047.9 hPa | 1.27 mm | - | 0 W/m² | - |
| 1777451885 | 16.67° C | 99% | 1047.6 hPa | 0 mm | - | 0 W/m² | - |
| 1777451582 | 16.67° C | 99% | 1047.7 hPa | 1.78 mm | - | 0 W/m² | - |
| 1777451277 | 16.67° C | 99% | 1047.5 hPa | 1.78 mm | - | 0 W/m² | - |
| 1777450973 | 16.67° C | 99% | 1048.2 hPa | 1.27 mm | - | 0 W/m² | - |
| 1777450669 | 16.67° C | 99% | 1048.3 hPa | 1.27 mm | - | 0 W/m² | - |
| 1777450365 | 16.67° C | 99% | 1048.1 hPa | 0 mm | - | 0 W/m² | - |
| 1777450062 | 16.67° C | 99% | 1048 hPa | 0 mm | - | 0 W/m² | - |
| 1777449758 | 16.67° C | 99% | 1048.6 hPa | 0 mm | - | 0 W/m² | - |
| 1777449455 | 16.67° C | 99% | 1048.8 hPa | 0 mm | - | 0 W/m² | - |
| 1777449150 | 17.22° C | 99% | 1048.8 hPa | 0 mm | - | 0 W/m² | - |
| 1777448846 | 17.22° C | 99% | 1048.6 hPa | 0 mm | - | 0 W/m² | - |
| 1777448543 | 17.22° C | 99% | 1048.8 hPa | 0 mm | - | 0 W/m² | - |
* Rain latest hour (hover to see other rain measurements)
** Current wind speed in m/s (hover to see current wind gust speed)